Flag for Austria Past Weather in Feldkirchen in Kärnten, Carinthia, Austria — Yesterday and Last 2 Weeks

Now
22 °F

Cold.


Feels Like: N/A
Forecast: 26 / 43 °F
Wind: N/A

Location: Klagenfurt-Flughafen

Current Time: Dec 10, 2016 at 6:01:19 am

Latest Report: Dec 10, 2016 at 5:00 am


Visibility: 9 mi

Pressure: 30.50 "Hg (28.46 "Hg at 541m altitude)

Humidity: 92%

Dew Point: 20 °F

Location of Feldkirchen in KärntenLocation

Past Weather in Feldkirchen in Kärnten — Graph

°F

Feldkirchen in Kärnten Temperature Yesterday

Maximum temperature yesterday: 41 °F (at 2:00 pm)
Minimum temperature yesterday: 21 °F (at 8:00 am)
Average temperature yesterday: 29 °F

High & Low Weather Summary for the Past Weeks

 TemperatureHumidityPressure
High54 °F (Dec 2, 3:00 pm)100% (Nov 25, 4:00 am)30.78 "Hg (Nov 25, 4:00 am)
Low18 °F (Dec 7, 7:00 am)28% (Nov 29, 3:00 pm)29.86 "Hg (Nov 27, 2:00 pm)
Average32 °F82%30.34 "Hg
* Reported Nov 25 4:00 am — Dec 10 4:00 am, Feldkirchen in Kärnten, Weather by CustomWeather, © 2016

Note: Actual official high and low records may vary slightly from our data, if they occured in-between our weather recording intervals... More about our weather records

Advertising

Feldkirchen in Kärnten Weather History for the Previous 24 Hours

Scroll right to see more
 ConditionsComfort  
Time TempWeatherWind HumidityBarometerVisibility
4:00 am
Sat, Dec 10
22 °FCold.N/A92%30.51 "Hg9 mi
3:00 am23 °FCold.N/A92%30.52 "Hg9 mi
2:00 am23 °FCold.N/A91%30.53 "Hg8 mi
1:00 am25 °FCold.N/A91%30.53 "Hg8 mi
12:00 am25 °FChilly.N/A90%30.54 "Hg7 mi
11:00 pm
Fri, Dec 9
26 °FPassing clouds.N/A90%30.54 "Hg7 mi
10:00 pm27 °FPassing clouds.N/A90%30.54 "Hg8 mi
8:00 pm28 °FPassing clouds.N/A88%30.52 "Hg7 mi
7:00 pm29 °FPassing clouds.N/A87%30.50 "Hg7 mi
6:00 pm31 °FPassing clouds.N/A83%30.49 "Hg7 mi
5:00 pm33 °FPassing clouds.N/A81%30.47 "Hg13 mi
4:00 pm37 °FPartly sunny.N/A70%30.46 "Hg12 mi
3:00 pm38 °FPartly sunny.N/A68%30.45 "Hg14 mi
2:00 pm41 °FScattered clouds.N/A59%30.45 "Hg16 mi
1:00 pm39 °FScattered clouds.N/A62%30.48 "Hg15 mi
12:00 pm37 °FScattered clouds.N/A66%30.50 "Hg12 mi
11:00 am32 °FPassing clouds.N/A79%30.54 "Hg9 mi
10:00 am29 °FPassing clouds.N/A84%30.56 "Hg7 mi
9:00 am24 °FPassing clouds.N/A92%30.58 "Hg7 mi
8:00 am21 °FPassing clouds.N/A92%30.59 "Hg6 mi
7:00 am22 °FClear.N/A93%30.59 "Hg5 mi
6:00 am22 °FCold.N/A92%30.58 "Hg4 mi
Weather by CustomWeather, © 2016

See weather overviewHow to use our weather pages